This demonstration page uses our WeatherBlox Daily Observations layout. Learn more.

Hourly Observations for May 21, 2018

Temp ( °F °C ) Dew Point ( °F °C ) Humidity (%) Winds ( mph kmh ) Pressure ( in mb ) Visibility ( mi km ) Precip ( " mm )
12:47 am 00:47 Cloudy with Mist and Fog 55 12.8 53 11.7 93 93 NW 5 7 30.09 1019 5 8.0467 0 0
12:54 am 00:54 Cloudy with Mist and Fog 54 12.2 53 11.7 97 97 WNW 6 9 30.09 1019 5 8.0467 0 0
1:54 am 01:54 Cloudy 54 12.2 53 11.7 97 97 WNW 5 7 30.07 1018 7 11.26538 0 0
2:54 am 02:54 Cloudy 54 12.2 52 11.1 93 93 NNW 8 13 30.06 1018 7 11.26538 0 0
3:05 am 03:05 Cloudy 54 12.2 52 11.1 93 93 N 5 7 30.06 1018 7 11.26538 0 0
3:46 am 03:46 Cloudy with Mist and Fog 54 12.2 52 11.1 93 93 NW 5 7 30.06 1018 6 9.65604 0 0
3:54 am 03:54 Cloudy with Mist and Fog 54 12.2 52 11.1 93 93 NW 6 9 30.06 1018 6 9.65604 0 0
4:40 am 04:40 Cloudy with Mist and Fog 54 12.2 52 11.1 93 93 W 6 9 30.06 1018 6 9.65604 0 0
4:54 am 04:54 Cloudy with Mist and Fog 54 12.2 52 11.1 93 93 WNW 6 9 30.06 1018 6 9.65604 0 0
5:13 am 05:13 Cloudy with Mist and Fog 54 12.2 52 11.1 93 93 NW 7 11 30.06 1018 6 9.65604 0 0
5:43 am 05:43 Cloudy with Mist and Fog 54 12.2 52 11.1 93 93 WNW 6 9 30.06 1018 6 9.65604 0 0
5:54 am 05:54 Cloudy with Mist and Fog 54 12.2 52 11.1 93 93 WNW 5 7 30.06 1018 6 9.65604 0 0
6:54 am 06:54 Mostly Cloudy with Mist and Fog 53 11.7 51 10.6 93 93 WNW 6 9 30.07 1018 5 8.0467 0 0
7:13 am 07:13 Mostly Cloudy with Mist and Fog 54 12.2 52 11.1 93 93 WNW 5 7 30.06 1018 5 8.0467 0 0
7:54 am 07:54 Cloudy 56 13.3 52 11.1 87 87 NW 7 11 30.08 1019 7 11.26538 0 0
8:38 am 08:38 Cloudy 56 13.3 51 10.6 84 84 NW 8 13 30.09 1019 8 12.87472 0 0
8:54 am 08:54 Cloudy 57 13.9 52 11.1 83 83 NW 6 9 30.08 1019 8 12.87472 0 0
9:54 am 09:54 Cloudy 60 15.6 53 11.7 78 78 NNW 6 9 30.07 1018 9 14.48406 0 0
10:17 am 10:17 Cloudy 61 16.1 53 11.7 75 75 NNW 3 6 30.09 1019 8 12.87472 0 0
10:54 am 10:54 Cloudy 63 17.2 54 12.2 73 73 VRB 3 6 30.06 1018 9 14.48406 0 0
11:29 am 11:29 Mostly Cloudy 64 17.8 54 12.2 70 70 SW 7 11 30.03 1017 10 16.0934 0 0
11:54 am 11:54 Mostly Cloudy 66 18.9 54 12.2 65 65 W 8 13 30.06 1018 10 16.0934 0 0
12:39 pm 12:39 Partly Cloudy 68 20 55 12.8 63 63 VRB 5 7 30.03 1017 10 16.0934 0 0
12:54 pm 12:54 Mostly Sunny 69 20.6 54 12.2 59 59 W 6 9 30.05 1018 10 16.0934 0 0
1:54 pm 13:54 Sunny 71 21.7 55 12.8 57 57 VRB 3 6 30.02 1017 10 16.0934 0 0
2:54 pm 14:54 Sunny 73 22.8 54 12.2 51 51 SW 9 15 30.01 1016 10 16.0934 0 0
3:54 pm 15:54 Sunny 77 25 53 11.7 43 43 W 9 15 29.99 1016 10 16.0934 0 0
4:54 pm 16:54 Sunny 76 24.4 54 12.2 47 47 SW 7 11 29.96 1015 10 16.0934 0 0
5:54 pm 17:54 Sunny 77 25 55 12.8 47 47 VRB 3 6 29.95 1014 10 16.0934 0 0
6:54 pm 18:54 Sunny 76 24.4 56 13.3 50 50 Calm 29.94 1014 10 16.0934 0 0
7:54 pm 19:54 Sunny 75 23.9 57 13.9 54 54 NE 3 6 29.94 1014 10 16.0934 0 0
8:54 pm 20:54 Partly Cloudy 69 20.6 57 13.9 66 66 ENE 6 9 29.95 1014 10 16.0934 0 0
9:54 pm 21:54 Cloudy 69 20.6 56 13.3 63 63 ENE 5 7 29.96 1015 10 16.0934 0 0
10:54 pm 22:54 Mostly Cloudy 67 19.4 58 14.4 73 73 SSE 9 15 29.98 1015 10 16.0934 0 0
11:54 pm 23:54 Cloudy 66 18.9 57 13.9 73 73 SSE 3 6 29.97 1015 10 16.0934 0 0

Powered by AerisWeather